User: anonymous   Login
Location: Albany
(35.0000°S, 118.0000°E)
Time: 23:43:03
(UTC-05:00)
Language:

Cosmos 1758 Rocket - Orbit

View from above orbital plane
View from above orbital plane
View from above satellite
View from above satellite

Ground track
Ground track

The orbit data is extracted from the following two-line orbital elements,

1 16792U 86046B   16040.86108792  .00000278  00000-0  30981-4 0  9993
2 16792  82.4847 306.5618 0025681 115.7756 316.4796 14.83032846601768
Epoch (UTC): 09 February 2016 20:39:57
Eccentricity: 0.0025681
inclination: 82.4847°
perigee height: 602 km
apogee height: 638 km
right ascension of ascending node: 306.5618°
argument of perigee: 115.7756°
revolutions per day: 14.83032846
mean anomaly at epoch: 316.4796°
orbit number at epoch: 60176

The dashed part of the orbit path shows where the satellite is in the earth's shadow,  

DLR